| time (UTC) | temp C | wind direction | speed KPH | gust KPH | rain 1hr cm | rain 24hr cm | rain mn cm | humidity % | barometer mb |
| 20260507070549 | 8 | 89 | 0.0 | 0.0 | 0.00 | 0.00 | 0.00 | 78 | 1013.7 |
| 20260507070046 | 9 | 89 | 0.0 | 0.0 | 0.00 | 0.00 | 0.00 | 77 | 1013.5 |
| 20260507065543 | 9 | 89 | 0.0 | 0.0 | 0.00 | 0.00 | 0.00 | 77 | 1013.5 |
| 20260507065040 | 10 | 89 | 0.0 | 0.0 | 0.00 | 0.00 | 0.00 | 76 | 1013.7 |
| 20260507064538 | 10 | 89 | 0.0 | 0.0 | 0.00 | 0.00 | 0.00 | 75 | 1013.7 |
| 20260507064036 | 10 | 89 | 0.0 | 0.0 | 0.00 | 0.00 | 0.00 | 74 | 1013.5 |
| 20260507063533 | 10 | 89 | 0.0 | 0.0 | 0.00 | 0.00 | 0.00 | 75 | 1013.8 |
| 20260507063030 | 10 | 89 | 0.0 | 0.0 | 0.00 | 0.00 | 0.00 | 74 | 1013.9 |
| 20260507062527 | 10 | 89 | 0.0 | 0.0 | 0.00 | 0.00 | 0.00 | 73 | 1013.8 |
| 20260507062025 | 10 | 88 | 0.0 | 0.0 | 0.00 | 0.00 | 0.00 | 69 | 1013.9 |
| 20260507061522 | 10 | 88 | 0.0 | 0.0 | 0.00 | 0.00 | 0.00 | 68 | 1013.8 |
| 20260507061020 | 11 | 102 | 1.6 | 1.6 | 0.00 | 0.00 | 0.00 | 68 | 1013.8 |
| 20260507060518 | 11 | 93 | 1.6 | 1.6 | 0.00 | 0.00 | 0.00 | 66 | 1013.8 |
| 20260507060014 | 11 | 102 | 0.0 | 0.0 | 0.00 | 0.00 | 0.00 | 65 | 1014.0 |
| 20260507055509 | 11 | 102 | 0.0 | 0.0 | 0.00 | 0.00 | 0.00 | 62 | 1014.0 |
| 20260507055006 | 11 | 75 | 1.6 | 1.6 | 0.00 | 0.00 | 0.00 | 62 | 1014.0 |
| 20260507054502 | 11 | 81 | 1.6 | 3.2 | 0.00 | 0.00 | 0.00 | 63 | 1014.2 |
| 20260507053959 | 11 | 67 | 0.0 | 0.0 | 0.00 | 0.00 | 0.00 | 62 | 1014.0 |
| 20260507053457 | 11 | 67 | 0.0 | 0.0 | 0.00 | 0.00 | 0.00 | 64 | 1014.1 |
| 20260507052955 | 11 | 67 | 0.0 | 0.0 | 0.00 | 0.00 | 0.00 | 65 | 1014.2 |
| 20260507052452 | 11 | 67 | 0.0 | 0.0 | 0.00 | 0.00 | 0.00 | 65 | 1014.0 |
| 20260507051949 | 11 | 120 | 1.6 | 1.6 | 0.00 | 0.00 | 0.00 | 62 | 1014.2 |
| 20260507051447 | 11 | 102 | 0.0 | 0.0 | 0.00 | 0.00 | 0.00 | 62 | 1014.3 |
| 20260507050943 | 11 | 79 | 0.0 | 0.0 | 0.00 | 0.00 | 0.00 | 60 | 1014.3 |
| 20260507050440 | 11 | 109 | 0.0 | 0.0 | 0.00 | 0.00 | 0.00 | 62 | 1014.2 |
| 20260507045937 | 11 | 92 | 0.0 | 1.6 | 0.00 | 0.00 | 0.00 | 60 | 1014.6 |
| 20260507045433 | 11 | 86 | 0.0 | 1.6 | 0.00 | 0.00 | 0.00 | 59 | 1014.2 |
| 20260507044931 | 11 | 100 | 0.0 | 0.0 | 0.00 | 0.00 | 0.00 | 59 | 1014.5 |
| 20260507044427 | 11 | 92 | 0.0 | 1.6 | 0.00 | 0.00 | 0.00 | 58 | 1014.4 |
| 20260507043923 | 11 | 103 | 0.0 | 0.0 | 0.00 | 0.00 | 0.00 | 59 | 1014.5 |
| 20260507043420 | 11 | 104 | 0.0 | 0.0 | 0.00 | 0.00 | 0.00 | 59 | 1014.4 |
| 20260507042916 | 11 | 112 | 0.0 | 0.0 | 0.00 | 0.00 | 0.00 | 59 | 1014.2 |
| 20260507042413 | 11 | 47 | 3.2 | 4.8 | 0.00 | 0.00 | 0.00 | 59 | 1014.2 |
| 20260507041908 | 12 | 35 | 1.6 | 3.2 | 0.00 | 0.00 | 0.00 | 59 | 1014.2 |
| 20260507041405 | 12 | 100 | 0.0 | 1.6 | 0.00 | 0.00 | 0.00 | 59 | 1014.0 |
| 20260507040903 | 12 | 65 | 3.2 | 3.2 | 0.00 | 0.00 | 0.00 | 58 | 1014.3 |
| 20260507040358 | 12 | 91 | 1.6 | 1.6 | 0.00 | 0.00 | 0.00 | 60 | 1014.1 |
| 20260507035854 | 12 | 93 | 0.0 | 1.6 | 0.00 | 1.83 | 1.83 | 59 | 1014.3 |
| 20260507035351 | 12 | 96 | 0.0 | 0.0 | 0.00 | 1.83 | 1.83 | 59 | 1014.3 |
| 20260507034848 | 12 | 71 | 1.6 | 1.6 | 0.00 | 1.83 | 1.83 | 59 | 1014.2 |
| 20260507034345 | 12 | 71 | 1.6 | 1.6 | 0.00 | 1.83 | 1.83 | 59 | 1014.1 |
| 20260507033843 | 12 | 18 | 1.6 | 1.6 | 0.00 | 1.83 | 1.83 | 60 | 1014.3 |
| 20260507033341 | 12 | 18 | 1.6 | 1.6 | 0.00 | 1.83 | 1.83 | 60 | 1014.4 |
| 20260507032837 | -17 | 0.0 | 0.0 | 0.00 | 0.00 | 0.00 | 1014.1 | ||
| 20260507032333 | -17 | 0.0 | 0.0 | 0.00 | 0.00 | 0.00 | 1014.2 | ||
| 20260507031830 | 12 | 93 | 0.0 | 0.0 | 0.00 | 1.83 | 1.83 | 60 | 1014.3 |
| 20260507031327 | 12 | 93 | 0.0 | 0.0 | 0.00 | 1.83 | 1.83 | 60 | 1013.9 |
| 20260507030823 | 12 | 93 | 0.0 | 0.0 | 0.00 | 1.83 | 1.83 | 60 | 1014.0 |
| 20260507030321 | 12 | 30 | 1.6 | 1.6 | 0.00 | 1.83 | 1.83 | 60 | 1014.1 |
| 20260507025818 | 12 | 101 | 0.0 | 0.0 | 0.00 | 1.83 | 1.83 | 61 | 1014.2 |
| 20260507025315 | 12 | 70 | 1.6 | 3.2 | 0.00 | 1.83 | 1.83 | 59 | 1014.4 |
| 20260507024813 | 12 | 64 | 1.6 | 1.6 | 0.00 | 1.83 | 1.83 | 60 | 1014.1 |
| 20260507024310 | 12 | 92 | 0.0 | 1.6 | 0.00 | 1.83 | 1.83 | 60 | 1014.1 |
| 20260507023806 | 12 | 112 | 0.0 | 0.0 | 0.00 | 1.83 | 1.83 | 60 | 1014.0 |
| 20260507023302 | 12 | 159 | 4.8 | 4.8 | 0.00 | 1.83 | 1.83 | 60 | 1014.1 |
| 20260507022800 | 12 | 188 | 1.6 | 3.2 | 0.00 | 1.83 | 1.83 | 59 | 1014.2 |
| 20260507022256 | 12 | 241 | 1.6 | 3.2 | 0.00 | 1.83 | 1.83 | 59 | 1013.8 |
| 20260507021752 | 13 | 67 | 1.6 | 1.6 | 0.00 | 1.83 | 1.83 | 59 | 1013.7 |
| 20260507021248 | 13 | 56 | 4.8 | 4.8 | 0.00 | 1.83 | 1.83 | 58 | 1013.5 |
| 20260507020746 | 13 | 19 | 4.8 | 4.8 | 0.00 | 1.83 | 1.83 | 58 | 1013.5 |
| 20260507020242 | 13 | 77 | 1.6 | 3.2 | 0.00 | 1.83 | 1.83 | 58 | 1013.4 |
| 20260507015740 | 13 | 77 | 0.0 | 1.6 | 0.00 | 1.83 | 1.83 | 58 | 1013.6 |
| 20260507015237 | 13 | 88 | 1.6 | 3.2 | 0.00 | 1.83 | 1.83 | 58 | 1013.2 |
| 20260507014734 | 13 | 12 | 4.8 | 8.0 | 0.00 | 1.83 | 1.83 | 57 | 1013.2 |
| 20260507014230 | 13 | 317 | 4.8 | 8.0 | 0.00 | 1.83 | 1.83 | 57 | 1013.3 |
| 20260507013727 | 13 | 316 | 6.4 | 8.0 | 0.00 | 1.83 | 1.83 | 58 | 1013.3 |
| 20260507013224 | 13 | 85 | 1.6 | 3.2 | 0.00 | 1.83 | 1.83 | 59 | 1013.2 |
| 20260507012722 | 13 | 40 | 3.2 | 3.2 | 0.00 | 1.83 | 1.83 | 60 | 1013.3 |
| 20260507012217 | 13 | 351 | 11.3 | 12.9 | 0.00 | 1.83 | 1.83 | 59 | 1013.0 |
| 20260507011715 | 14 | 71 | 4.8 | 4.8 | 0.00 | 1.83 | 1.83 | 59 | 1013.0 |
| 20260507011211 | 14 | 44 | 4.8 | 8.0 | 0.00 | 1.83 | 1.83 | 59 | 1012.9 |
| 20260507010711 | 14 | 35 | 4.8 | 4.8 | 0.00 | 1.83 | 1.83 | 59 | 1012.6 |
| 20260507010207 | 14 | 35 | 4.8 | 4.8 | 0.00 | 1.83 | 1.83 | 59 | 1012.5 |
| 20260507005705 | 14 | 13 | 3.2 | 3.2 | 0.00 | 1.83 | 1.83 | 60 | 1012.4 |
| 20260507005200 | 14 | 79 | 1.6 | 1.6 | 0.00 | 1.83 | 1.83 | 65 | 1012.4 |
| 20260507004657 | 14 | 55 | 1.6 | 1.6 | 0.00 | 1.83 | 1.83 | 63 | 1012.4 |
| 20260507004155 | 14 | 74 | 1.6 | 1.6 | 0.00 | 1.83 | 1.83 | 59 | 1012.2 |
| 20260507003651 | 14 | 290 | 4.8 | 4.8 | 0.00 | 1.83 | 1.83 | 61 | 1012.6 |
| 20260507003152 | 14 | 67 | 1.6 | 1.6 | 0.00 | 1.83 | 1.83 | 70 | 1012.3 |
| 20260507002648 | 14 | 93 | 0.0 | 0.0 | 0.00 | 1.83 | 1.83 | 68 | 1012.2 |
| 20260507002144 | 14 | 95 | 0.0 | 0.0 | 0.00 | 1.83 | 1.83 | 68 | 1012.1 |
| 20260507001641 | 14 | 106 | 0.0 | 0.0 | 0.00 | 1.83 | 1.83 | 69 | 1012.3 |
| 20260507001139 | 14 | 96 | 0.0 | 0.0 | 0.00 | 1.83 | 1.83 | 72 | 1011.8 |
| 20260507000635 | 15 | 89 | 0.0 | 0.0 | 0.00 | 1.83 | 1.83 | 75 | 1011.9 |
| 20260507000130 | 15 | 86 | 0.0 | 1.6 | 0.00 | 1.83 | 1.83 | 71 | 1011.9 |
| 20260506235628 | 15 | 75 | 0.0 | 0.0 | 0.00 | 1.83 | 1.83 | 69 | 1012.0 |
| 20260506235127 | 15 | 62 | 0.0 | 1.6 | 0.00 | 1.83 | 1.83 | 67 | 1012.0 |
| 20260506234625 | 15 | 85 | 0.0 | 1.6 | 0.00 | 1.83 | 1.83 | 67 | 1012.0 |
| 20260506234122 | 15 | 55 | 1.6 | 1.6 | 0.00 | 1.83 | 1.83 | 68 | 1011.9 |
| 20260506233619 | 15 | 46 | 1.6 | 1.6 | 0.00 | 1.83 | 1.83 | 66 | 1011.6 |
| 20260506233116 | 15 | 45 | 1.6 | 1.6 | 0.00 | 1.83 | 1.83 | 66 | 1011.7 |
| 20260506232612 | 15 | 86 | 0.0 | 0.0 | 0.00 | 1.83 | 1.83 | 64 | 1011.8 |
| 20260506232107 | 15 | 52 | 1.6 | 3.2 | 0.00 | 1.83 | 1.83 | 63 | 1012.2 |
| 20260506231605 | 15 | 83 | 0.0 | 0.0 | 0.00 | 1.83 | 1.83 | 68 | 1012.4 |
| 20260506231103 | 15 | 80 | 0.0 | 1.6 | 0.00 | 1.83 | 1.83 | 69 | 1012.5 |
| 20260506230559 | 15 | 81 | 0.0 | 1.6 | 0.00 | 1.83 | 1.83 | 68 | 1012.3 |
| 20260506230056 | 15 | 84 | 0.0 | 0.0 | 0.00 | 1.83 | 1.83 | 65 | 1012.2 |
| 20260506225553 | 15 | 87 | 1.6 | 1.6 | 0.00 | 1.83 | 1.83 | 63 | 1012.2 |
| 20260506225049 | 15 | 73 | 1.6 | 3.2 | 0.00 | 1.83 | 1.83 | 63 | 1012.0 |
| 20260506224546 | 15 | 72 | 1.6 | 1.6 | 0.00 | 1.83 | 1.83 | 61 | 1012.0 |
| 20260506224043 | 15 | 88 | 0.0 | 0.0 | 0.00 | 1.83 | 1.83 | 63 | 1012.1 |
| 20260506223539 | 15 | 62 | 0.0 | 0.0 | 0.00 | 1.83 | 1.83 | 62 | 1012.0 |
| 20260506223036 | 15 | 71 | 1.6 | 1.6 | 0.00 | 1.83 | 1.83 | 61 | 1011.9 |
| 20260506222533 | 16 | 42 | 1.6 | 3.2 | 0.00 | 1.83 | 1.83 | 61 | 1011.9 |
| 20260506222029 | 16 | 82 | 0.0 | 1.6 | 0.00 | 1.83 | 1.83 | 59 | 1011.8 |
| 20260506221526 | -17 | 0.0 | 0.0 | 0.00 | 0.00 | 0.00 | 1011.9 | ||
| 20260506221024 | -17 | 0.0 | 0.0 | 0.00 | 0.00 | 0.00 | 1011.9 | ||
| 20260506220520 | -17 | 0.0 | 0.0 | 0.00 | 0.00 | 0.00 | 1011.7 | ||
| 20260506220016 | -17 | 0.0 | 0.0 | 0.00 | 0.00 | 0.00 | 1011.7 | ||
| 20260506215513 | 16 | 137 | 0.0 | 0.0 | 0.00 | 1.83 | 1.83 | 74 | 1011.8 |
| 20260506215009 | 16 | 137 | 0.0 | 0.0 | 0.00 | 1.83 | 1.83 | 74 | 1011.5 |
| 20260506214506 | 16 | 137 | 0.0 | 0.0 | 0.00 | 1.83 | 1.83 | 74 | 1011.3 |
| 20260506214003 | 16 | 142 | 1.6 | 1.6 | 0.00 | 1.83 | 1.83 | 73 | 1011.3 |
| 20260506213501 | -17 | 0.0 | 0.0 | 0.00 | 0.00 | 0.00 | 1011.3 | ||
| 20260506212958 | 16 | 99 | 0.0 | 0.0 | 0.00 | 1.83 | 1.83 | 74 | 1011.5 |
| 20260506212454 | 16 | 99 | 0.0 | 0.0 | 0.00 | 1.83 | 1.83 | 74 | 1011.7 |
| 20260506211948 | 16 | 99 | 0.0 | 0.0 | 0.00 | 1.83 | 1.83 | 74 | 1011.4 |
| 20260506211445 | 16 | 149 | 3.2 | 3.2 | 0.00 | 1.83 | 1.83 | 74 | 1011.3 |
| 20260506210942 | 16 | 133 | 0.0 | 1.6 | 0.00 | 1.83 | 1.83 | 75 | 1011.5 |
| 20260506210438 | 16 | 145 | 0.0 | 1.6 | 0.00 | 1.83 | 1.83 | 76 | 1011.5 |
| 20260506205936 | 16 | 145 | 0.0 | 1.6 | 0.00 | 1.83 | 1.83 | 76 | 1011.4 |
| 20260506205432 | 16 | 107 | 1.6 | 3.2 | 0.00 | 1.83 | 1.83 | 73 | 1011.4 |
| 20260506204928 | 16 | 151 | 0.0 | 1.6 | 0.00 | 1.83 | 1.83 | 73 | 1011.2 |
| 20260506204426 | 16 | 143 | 0.0 | 0.0 | 0.00 | 1.83 | 1.83 | 73 | 1011.5 |
| 20260506203923 | 17 | 126 | 0.0 | 1.6 | 0.00 | 1.83 | 1.83 | 75 | 1011.3 |
| 20260506203420 | 17 | 126 | 0.0 | 1.6 | 0.00 | 1.83 | 1.83 | 75 | 1011.3 |
| 20260506202917 | 17 | 137 | 0.0 | 1.6 | 0.00 | 1.83 | 1.83 | 74 | 1011.4 |
| 20260506202414 | 17 | 125 | 0.0 | 0.0 | 0.00 | 1.83 | 1.83 | 75 | 1011.0 |
| 20260506201911 | 16 | 153 | 1.6 | 1.6 | 0.00 | 1.83 | 1.83 | 79 | 1011.0 |
| 20260506201409 | 16 | 112 | 1.6 | 1.6 | 0.00 | 1.83 | 1.83 | 75 | 1011.0 |
| 20260506200905 | 16 | 138 | 0.0 | 1.6 | 0.00 | 1.83 | 1.83 | 76 | 1010.8 |
| 20260506200401 | 17 | 56 | 1.6 | 3.2 | 0.00 | 1.83 | 1.83 | 74 | 1011.0 |
| 20260506195857 | 16 | 152 | 1.6 | 1.6 | 0.00 | 1.83 | 1.83 | 76 | 1011.2 |
| 20260506195355 | 16 | 153 | 0.0 | 0.0 | 0.00 | 1.83 | 1.83 | 76 | 1011.1 |
| 20260506194851 | 16 | 119 | 0.0 | 0.0 | 0.00 | 1.83 | 1.83 | 75 | 1011.1 |
| 20260506194348 | 16 | 144 | 0.0 | 1.6 | 0.00 | 1.83 | 1.83 | 77 | 1010.9 |
| 20260506193846 | 17 | 175 | 1.6 | 1.6 | 0.00 | 1.83 | 1.83 | 72 | 1010.9 |
| 20260506193342 | 17 | 172 | 1.6 | 3.2 | 0.00 | 1.83 | 1.83 | 76 | 1010.9 |
| 20260506192839 | 17 | 166 | 3.2 | 3.2 | 0.00 | 1.83 | 1.83 | 78 | 1011.0 |
| 20260506192335 | 17 | 143 | 0.0 | 1.6 | 0.00 | 1.83 | 1.83 | 79 | 1011.1 |
| 20260506191833 | 16 | 145 | 1.6 | 1.6 | 0.00 | 1.83 | 1.83 | 80 | 1011.0 |
| 20260506191329 | 16 | 157 | 1.6 | 1.6 | 0.00 | 1.83 | 1.83 | 80 | 1011.1 |
| 20260506190826 | 17 | 127 | 0.0 | 0.0 | 0.00 | 1.83 | 1.83 | 78 | 1011.2 |
| 20260506190322 | 17 | 154 | 0.0 | 1.6 | 0.00 | 1.83 | 1.83 | 80 | 1011.0 |
| 20260506185819 | 17 | 138 | 0.0 | 0.0 | 0.00 | 1.83 | 1.83 | 79 | 1011.1 |
| 20260506185316 | 16 | 144 | 0.0 | 0.0 | 0.00 | 1.83 | 1.83 | 80 | 1011.1 |
| 20260506184813 | 16 | 154 | 1.6 | 1.6 | 0.00 | 1.83 | 1.83 | 82 | 1011.2 |
| 20260506184311 | 16 | 184 | 1.6 | 3.2 | 0.00 | 1.83 | 1.83 | 83 | 1011.3 |
| 20260506183808 | 16 | 51 | 1.6 | 3.2 | 0.00 | 1.83 | 1.83 | 82 | 1011.5 |
| 20260506183303 | 16 | 157 | 0.0 | 1.6 | 0.00 | 1.83 | 1.83 | 84 | 1011.3 |
| 20260506182800 | 16 | 159 | 1.6 | 3.2 | 0.00 | 1.83 | 1.83 | 82 | 1011.4 |
| 20260506182257 | 16 | 162 | 1.6 | 3.2 | 0.00 | 1.83 | 1.83 | 83 | 1011.2 |
| 20260506181755 | 16 | 160 | 0.0 | 1.6 | 0.00 | 1.83 | 1.83 | 83 | 1011.3 |
| 20260506181253 | 16 | 146 | 0.0 | 1.6 | 0.00 | 1.83 | 1.83 | 81 | 1011.3 |
| 20260506180749 | 16 | 155 | 0.0 | 0.0 | 0.00 | 1.83 | 1.83 | 85 | 1011.3 |
| 20260506180245 | 15 | 113 | 0.0 | 1.6 | 0.00 | 1.83 | 1.83 | 85 | 1011.3 |
| 20260506175742 | 15 | 208 | 8.0 | 11.3 | 0.00 | 1.83 | 1.83 | 84 | 1011.5 |
| 20260506175239 | 15 | 141 | 0.0 | 1.6 | 0.00 | 1.83 | 1.83 | 87 | 1011.4 |
| 20260506174737 | 15 | 126 | 0.0 | 0.0 | 0.00 | 1.83 | 1.83 | 86 | 1011.4 |
| 20260506174233 | 15 | 90 | 1.6 | 1.6 | 0.00 | 1.83 | 1.83 | 85 | 1011.5 |
| 20260506173731 | 15 | 127 | 1.6 | 1.6 | 0.00 | 1.83 | 1.83 | 84 | 1011.6 |
| 20260506173227 | 15 | 140 | 0.0 | 0.0 | 0.00 | 1.83 | 1.83 | 85 | 1011.5 |
| 20260506172724 | 16 | 64 | 1.6 | 1.6 | 0.00 | 1.83 | 1.83 | 84 | 1011.4 |
| 20260506172221 | 15 | 65 | 1.6 | 1.6 | 0.00 | 1.83 | 1.83 | 87 | 1011.5 |
| 20260506171719 | 15 | 141 | 1.6 | 1.6 | 0.00 | 1.83 | 1.83 | 89 | 1011.2 |
| 20260506171216 | 14 | 124 | 0.0 | 0.0 | 0.00 | 1.83 | 1.83 | 91 | 1011.3 |
| 20260506170713 | 14 | 118 | 1.6 | 3.2 | 0.00 | 1.83 | 1.83 | 92 | 1011.3 |
| 20260506170210 | 13 | 155 | 0.0 | 1.6 | 0.00 | 1.83 | 1.83 | 96 | 1011.7 |
| 20260506165708 | 12 | 131 | 0.0 | 0.0 | 0.00 | 1.83 | 1.83 | 98 | 1011.5 |
| 20260506165205 | 12 | 144 | 0.0 | 1.6 | 0.00 | 1.83 | 1.83 | 99 | 1011.6 |
| 20260506164702 | 12 | 248 | 1.6 | 1.6 | 0.00 | 1.83 | 1.83 | 99 | 1011.7 |
| 20260506164159 | 12 | 148 | 1.6 | 3.2 | 0.00 | 1.83 | 1.83 | 99 | 1011.4 |
| 20260506163655 | 12 | 150 | 0.0 | 0.0 | 0.00 | 1.83 | 1.83 | 99 | 1011.8 |
| 20260506163150 | 12 | 117 | 0.0 | 1.6 | 0.00 | 1.83 | 1.83 | 99 | 1011.8 |
| 20260506162647 | 11 | 142 | 0.0 | 1.6 | 0.00 | 1.83 | 1.83 | 99 | 1011.8 |
| 20260506162144 | 11 | 149 | 0.0 | 1.6 | 0.00 | 1.83 | 1.83 | 99 | 1011.6 |
| 20260506161641 | 11 | 123 | 0.0 | 0.0 | 0.00 | 1.83 | 1.83 | 99 | 1011.5 |
| 20260506161138 | 11 | 153 | 1.6 | 1.6 | 0.00 | 1.83 | 1.83 | 99 | 1011.8 |
| 20260506160636 | 11 | 114 | 1.6 | 1.6 | 0.00 | 1.83 | 1.83 | 99 | 1011.9 |
| 20260506160132 | 11 | 130 | 1.6 | 3.2 | 0.00 | 1.83 | 1.83 | 99 | 1011.5 |
| 20260506155631 | 11 | 120 | 0.0 | 0.0 | 0.00 | 1.83 | 1.83 | 99 | 1011.5 |
| 20260506155128 | 10 | 120 | 1.6 | 1.6 | 0.00 | 1.83 | 1.83 | 99 | 1011.0 |
| 20260506153230 | 10 | 113 | 0.0 | 0.0 | 0.00 | 1.83 | 1.83 | 99 | 1011.1 |
| 20260506152727 | 10 | 145 | 0.0 | 0.0 | 0.00 | 1.83 | 1.83 | 99 | 1010.7 |
| 20260506152224 | 10 | 146 | 1.6 | 1.6 | 0.00 | 1.83 | 1.83 | 99 | 1010.9 |
| 20260506151723 | 10 | 189 | 4.8 | 8.0 | 0.00 | 1.83 | 1.83 | 99 | 1010.6 |
| 20260506151219 | 10 | 139 | 0.0 | 1.6 | 0.00 | 1.83 | 1.83 | 99 | 1010.7 |
| 20260506150716 | 10 | 294 | 6.4 | 9.7 | 0.00 | 1.83 | 1.83 | 99 | 1010.7 |
| 20260506150213 | 10 | 134 | 0.0 | 0.0 | 0.00 | 1.83 | 1.83 | 99 | 1010.5 |
| 20260506145710 | 10 | 124 | 3.2 | 3.2 | 0.00 | 1.83 | 1.83 | 99 | 1010.2 |
| 20260506145206 | 10 | 139 | 0.0 | 0.0 | 0.00 | 1.83 | 1.83 | 99 | 1010.3 |
| 20260506144704 | 10 | 114 | 0.0 | 0.0 | 0.00 | 1.83 | 1.83 | 99 | 1010.3 |
| 20260506144200 | 10 | 139 | 1.6 | 1.6 | 0.00 | 1.83 | 1.83 | 99 | 1010.1 |
| 20260506143658 | 10 | 127 | 0.0 | 0.0 | 0.00 | 1.83 | 1.83 | 99 | 1010.0 |
| 20260506143156 | 10 | 95 | 0.0 | 0.0 | 0.00 | 1.83 | 1.83 | 99 | 1009.8 |
| 20260506142654 | 10 | 138 | 0.0 | 0.0 | 0.00 | 1.83 | 1.83 | 99 | 1009.9 |
| 20260506142152 | 10 | 142 | 0.0 | 0.0 | 0.00 | 1.83 | 1.83 | 99 | 1009.9 |
| 20260506141649 | 10 | 140 | 0.0 | 0.0 | 0.00 | 1.83 | 1.83 | 99 | 1009.9 |
| 20260506141147 | 10 | 169 | 4.8 | 4.8 | 0.00 | 1.83 | 1.83 | 99 | 1010.1 |
| 20260506140644 | 10 | 161 | 6.4 | 11.3 | 0.00 | 1.83 | 1.83 | 99 | 1010.0 |
| 20260506140142 | 10 | 147 | 0.0 | 1.6 | 0.00 | 1.83 | 1.83 | 99 | 1009.6 |
| 20260506135639 | 10 | 105 | 1.6 | 3.2 | 0.00 | 1.83 | 1.83 | 99 | 1009.6 |
| 20260506135135 | 10 | 202 | 3.2 | 3.2 | 0.00 | 1.83 | 1.83 | 99 | 1009.5 |
| 20260506134632 | 10 | 236 | 4.8 | 8.0 | 0.13 | 1.83 | 1.83 | 99 | 1009.0 |
| 20260506134127 | 10 | 200 | 1.6 | 1.6 | 0.00 | 1.80 | 1.80 | 99 | 1009.1 |
| 20260506133625 | 10 | 202 | 6.4 | 8.0 | 0.18 | 1.80 | 1.80 | 99 | 1008.9 |
| 20260506133122 | 10 | 149 | 3.2 | 4.8 | 0.18 | 1.80 | 1.80 | 99 | 1008.7 |
| 20260506132619 | 10 | 129 | 0.0 | 1.6 | 0.00 | 1.78 | 1.78 | 99 | 1008.6 |
| 20260506132116 | 11 | 151 | 6.4 | 9.7 | 0.00 | 1.78 | 1.78 | 99 | 1008.4 |
| 20260506131613 | 11 | 149 | 4.8 | 8.0 | 0.13 | 1.78 | 1.78 | 99 | 1008.5 |
| 20260506131109 | 12 | 131 | 1.6 | 4.8 | 0.13 | 1.78 | 1.78 | 99 | 1008.2 |
| 20260506130607 | 15 | 71 | 3.2 | 3.2 | 0.00 | 1.75 | 1.75 | 99 | 1007.9 |
| 20260506130104 | 15 | 144 | 3.2 | 4.8 | 0.00 | 1.75 | 1.75 | 99 | 1007.6 |
| 20260506125602 | 15 | 225 | 8.0 | 9.7 | 0.00 | 1.75 | 1.75 | 99 | 1007.4 |
| 20260506125100 | 15 | 164 | 4.8 | 8.0 | 0.00 | 1.75 | 1.75 | 99 | 1007.5 |
| 20260506124557 | 15 | 173 | 4.8 | 4.8 | 0.00 | 1.75 | 1.75 | 99 | 1007.5 |
| 20260506124055 | 15 | 149 | 3.2 | 3.2 | 0.00 | 1.75 | 1.75 | 99 | 1007.3 |
| 20260506123553 | 15 | 159 | 0.0 | 1.6 | 0.00 | 1.75 | 1.75 | 99 | 1007.0 |
| 20260506123051 | 14 | 142 | 0.0 | 0.0 | 0.00 | 1.75 | 1.75 | 99 | 1007.3 |
| 20260506122547 | 14 | 167 | 1.6 | 3.2 | 0.00 | 1.75 | 1.75 | 99 | 1007.3 |
| 20260506122045 | 14 | 150 | 1.6 | 1.6 | 0.00 | 1.75 | 1.75 | 99 | 1007.3 |
| 20260506121542 | 14 | 144 | 1.6 | 1.6 | 0.00 | 1.75 | 1.75 | 99 | 1007.1 |
| 20260506121038 | 14 | 152 | 0.0 | 0.0 | 0.00 | 1.75 | 1.75 | 99 | 1007.1 |
| 20260506120536 | 14 | 158 | 1.6 | 3.2 | 0.00 | 1.75 | 1.75 | 99 | 1007.5 |
| 20260506120033 | 14 | 143 | 0.0 | 0.0 | 0.00 | 1.75 | 1.75 | 99 | 1007.1 |
| 20260506115531 | 14 | 134 | 0.0 | 0.0 | 0.00 | 1.75 | 1.75 | 99 | 1006.8 |
| 20260506115030 | 14 | 144 | 0.0 | 0.0 | 0.00 | 1.75 | 1.75 | 99 | 1006.9 |
| 20260506114527 | 14 | 147 | 0.0 | 1.6 | 0.00 | 1.75 | 1.75 | 99 | 1007.2 |
| 20260506114025 | 14 | 187 | 6.4 | 8.0 | 0.00 | 1.75 | 1.75 | 99 | 1007.1 |
| 20260506113523 | 14 | 148 | 0.0 | 1.6 | 0.00 | 1.75 | 1.75 | 99 | 1007.0 |
| 20260506113020 | 14 | 150 | 0.0 | 0.0 | 0.00 | 1.75 | 1.75 | 99 | 1006.8 |
| 20260506112516 | 14 | 150 | 1.6 | 3.2 | 0.00 | 1.75 | 1.75 | 99 | 1007.1 |
| 20260506112014 | 14 | 180 | 0.0 | 3.2 | 0.00 | 1.75 | 1.75 | 99 | 1006.8 |
| 20260506111512 | 14 | 142 | 0.0 | 0.0 | 0.00 | 1.75 | 1.75 | 99 | 1006.6 |
| 20260506111008 | 14 | 146 | 0.0 | 0.0 | 0.00 | 1.75 | 1.75 | 99 | 1006.7 |
| 20260506110506 | 14 | 147 | 0.0 | 0.0 | 0.00 | 1.75 | 1.75 | 99 | 1006.8 |
| 20260506110003 | 14 | 147 | 1.6 | 1.6 | 0.00 | 1.75 | 1.75 | 99 | 1006.7 |
| 20260506105459 | 14 | 152 | 1.6 | 1.6 | 0.00 | 1.75 | 1.75 | 99 | 1006.8 |
| 20260506104956 | 13 | 114 | 0.0 | 0.0 | 0.00 | 1.75 | 1.75 | 99 | 1006.5 |
| 20260506104454 | 13 | 125 | 0.0 | 0.0 | 0.00 | 1.75 | 1.75 | 99 | 1006.4 |
| 20260506103952 | 13 | 150 | 0.0 | 1.6 | 0.18 | 1.75 | 1.75 | 99 | 1006.5 |
| 20260506103449 | 13 | 139 | 1.6 | 1.6 | 0.18 | 1.75 | 1.75 | 99 | 1006.5 |
| 20260506102946 | 13 | 132 | 1.6 | 3.2 | 0.18 | 1.73 | 1.73 | 99 | 1006.4 |
| 20260506102444 | 13 | 124 | 0.0 | 0.0 | 0.18 | 1.73 | 1.73 | 99 | 1006.4 |
| 20260506101941 | 13 | 144 | 0.0 | 1.6 | 0.00 | 1.70 | 1.70 | 99 | 1006.5 |
| 20260506101437 | 13 | 145 | 1.6 | 3.2 | 0.13 | 1.70 | 1.70 | 99 | 1006.3 |
| 20260506100935 | 13 | 128 | 0.0 | 0.0 | 0.30 | 1.70 | 1.70 | 99 | 1006.5 |
| 20260506100433 | 13 | 96 | 1.6 | 1.6 | 0.18 | 1.68 | 1.68 | 99 | 1006.2 |
| 20260506095931 | 13 | 135 | 0.0 | 0.0 | 0.00 | 1.65 | 1.65 | 99 | 1006.5 |
| 20260506095429 | 13 | 135 | 0.0 | 0.0 | 0.13 | 1.65 | 1.65 | 99 | 1006.5 |
| 20260506094925 | 13 | 135 | 0.0 | 0.0 | 0.13 | 1.65 | 1.65 | 99 | 1006.7 |
| 20260506094424 | 13 | 141 | 0.0 | 1.6 | 0.79 | 1.63 | 1.63 | 99 | 1006.5 |
| 20260506093921 | 13 | 148 | 0.0 | 0.0 | 0.79 | 1.63 | 1.63 | 99 | 1006.8 |
| 20260506093419 | -17 | 0.0 | 0.0 | 0.00 | 0.00 | 0.00 | 1006.7 | ||
| 20260506092916 | -17 | 0.0 | 0.0 | 0.00 | 0.00 | 0.00 | 1007.0 | ||
| 20260506092414 | 13 | 152 | 0.0 | 0.0 | 0.00 | 1.50 | 1.50 | 99 | 1006.8 |
| 20260506091910 | 13 | 152 | 0.0 | 0.0 | 0.13 | 1.50 | 1.50 | 99 | 1006.9 |
| 20260506091409 | 13 | 152 | 0.0 | 0.0 | 0.13 | 1.50 | 1.50 | 99 | 1006.8 |
| 20260506090905 | 13 | 152 | 0.0 | 0.0 | 1.07 | 1.47 | 1.47 | 99 | 1006.7 |
| 20260506090403 | 13 | 152 | 0.0 | 0.0 | 1.07 | 1.47 | 1.47 | 99 | 1006.7 |
| 20260506085859 | -17 | 0.0 | 0.0 | 0.00 | 0.00 | 0.00 | 1006.8 | ||
| 20260506085356 | 13 | 154 | 0.0 | 0.0 | 0.00 | 1.30 | 1.30 | 99 | 1006.9 |
| 20260506084852 | 13 | 154 | 0.0 | 0.0 | 0.00 | 1.30 | 1.30 | 99 | 1006.8 |
| 20260506084349 | 13 | 152 | 0.0 | 0.0 | 0.18 | 1.30 | 1.30 | 99 | 1006.8 |
| 20260506083846 | 13 | 152 | 0.0 | 0.0 | 0.89 | 1.30 | 1.30 | 99 | 1006.8 |
| 20260506083343 | 13 | 152 | 0.0 | 0.0 | 0.71 | 1.27 | 1.27 | 99 | 1006.8 |
| 20260506082841 | 13 | 141 | 0.0 | 0.0 | 0.18 | 1.14 | 1.14 | 99 | 1006.9 |
| 20260506082337 | 13 | 142 | 0.0 | 0.0 | 1.07 | 1.14 | 1.14 | 99 | 1006.7 |
| 20260506081833 | 14 | 149 | 0.0 | 0.0 | 0.89 | 1.12 | 1.12 | 99 | 1007.1 |
| 20260506081332 | 14 | 106 | 3.2 | 3.2 | 0.18 | 0.97 | 0.97 | 99 | 1006.8 |
| 20260506080829 | 14 | 106 | 3.2 | 3.2 | 2.16 | 0.97 | 0.97 | 99 | 1006.9 |
| 20260506080325 | 14 | 127 | 0.0 | 1.6 | 2.16 | 0.97 | 0.97 | 99 | 1006.9 |
| 20260506073309 | 15 | 229 | 6.4 | 8.0 | 1.32 | 0.43 | 0.43 | 99 | 1007.2 |
| 20260506072806 | 15 | 221 | 4.8 | 8.0 | 1.37 | 0.36 | 0.36 | 99 | 1007.6 |
| 20260506072305 | 15 | 210 | 4.8 | 11.3 | 0.79 | 0.20 | 0.20 | 98 | 1007.5 |
| 20260506071801 | 15 | 147 | 4.8 | 4.8 | 0.30 | 0.13 | 0.13 | 97 | 1007.7 |
| 20260506071259 | 15 | 199 | 8.0 | 9.7 | 0.00 | 0.08 | 0.08 | 97 | 1007.0 |
| 20260506070756 | 15 | 166 | 3.2 | 8.0 | 0.00 | 0.08 | 0.08 | 96 | 1006.8 |